Time,TemperatureF,DewpointF,PressureIn,WindDirection,WindDirectionDegrees,WindSpeedMPH,WindSpeedGustMPH,Humidity,HourlyPrecipIn,Conditions,Clouds,dailyrainin,SoftwareType,DateUTC
2013-02-16 00:00:00,39.1,38.6,30.30,NW,304,0.0,0.0,98,0.00,,,0.01,Wunderground v.1.15,2013-02-16 08:00:00,
2013-02-16 00:09:00,39.1,38.6,30.30,NW,305,0.0,0.0,98,0.00,,,0.00,Wunderground v.1.15,2013-02-16 08:09:00,
2013-02-16 00:15:00,39.3,38.8,30.30,NW,304,0.0,0.0,98,0.00,,,0.00,Wunderground v.1.15,2013-02-16 08:15:00,
2013-02-16 00:25:00,39.2,38.7,30.30,NW,307,0.0,0.0,98,0.00,,,0.00,Wunderground v.1.15,2013-02-16 08:25:00,
2013-02-16 00:33:00,39.2,39.0,30.29,NW,307,0.0,1.0,98,0.00,,,0.00,weatherlink.com 1.10,2013-02-16 08:33:00,
2013-02-16 00:39:00,39.2,38.7,30.29,NW,307,0.0,0.0,98,0.00,,,0.00,Wunderground v.1.15,2013-02-16 08:39:00,
2013-02-16 00:45:00,39.2,38.7,30.30,NW,307,0.0,0.0,98,0.00,,,0.00,Wunderground v.1.15,2013-02-16 08:45:00,
2013-02-16 00:55:00,39.2,38.7,30.29,NW,307,0.0,4.0,98,0.00,,,0.00,Wunderground v.1.15,2013-02-16 08:55:00,
2013-02-16 01:04:00,39.3,39.0,30.29,NW,307,0.0,0.0,98,0.00,,,0.00,weatherlink.com 1.10,2013-02-16 09:04:00,
2013-02-16 01:09:00,39.4,38.9,30.29,NW,307,0.0,0.0,98,0.00,,,0.00,Wunderground v.1.15,2013-02-16 09:09:00,
2013-02-16 01:15:00,39.4,38.9,30.29,NW,307,0.0,0.0,98,0.00,,,0.00,Wunderground v.1.15,2013-02-16 09:15:00,
2013-02-16 01:20:00,39.4,39.0,30.29,NW,307,0.0,0.0,98,0.00,,,0.00,weatherlink.com 1.10,2013-02-16 09:20:00,
2013-02-16 01:29:00,39.4,38.9,30.29,NW,307,0.0,0.0,98,0.00,,,0.00,Wunderground v.1.15,2013-02-16 09:29:00,
2013-02-16 01:35:00,39.5,39.0,30.29,NW,307,0.0,1.0,98,0.00,,,0.00,weatherlink.com 1.10,2013-02-16 09:35:00,
2013-02-16 01:45:00,39.4,38.9,30.29,NW,307,0.0,0.0,98,0.00,,,0.00,Wunderground v.1.15,2013-02-16 09:45:00,
2013-02-16 01:51:00,39.3,39.0,30.29,NW,307,0.0,1.0,98,0.00,,,0.00,weatherlink.com 1.10,2013-02-16 09:51:00,
2013-02-16 02:00:00,39.3,38.8,30.29,NW,307,0.0,0.0,98,0.00,,,0.00,Wunderground v.1.15,2013-02-16 10:00:00,
2013-02-16 02:05:00,39.4,38.9,30.29,NW,308,0.0,0.0,98,0.00,,,0.00,Wunderground v.1.15,2013-02-16 10:05:00,
2013-02-16 02:15:00,39.3,38.8,30.29,WSW,246,0.0,0.0,98,0.00,,,0.00,Wunderground v.1.15,2013-02-16 10:15:00,
2013-02-16 02:22:00,39.3,39.0,30.30,WSW,248,0.0,0.0,98,0.00,,,0.00,weatherlink.com 1.10,2013-02-16 10:22:00,
2013-02-16 02:29:00,39.3,38.8,30.29,SW,228,0.0,0.0,98,0.00,,,0.00,Wunderground v.1.15,2013-02-16 10:29:00,
2013-02-16 02:35:00,39.3,38.8,30.30,SE,145,0.0,0.0,98,0.00,,,0.00,Wunderground v.1.15,2013-02-16 10:35:00,
2013-02-16 02:45:00,39.3,38.8,30.29,SE,144,1.0,1.0,98,0.00,,,0.00,Wunderground v.1.15,2013-02-16 10:45:00,
2013-02-16 02:53:00,39.3,39.0,30.29,ESE,114,0.0,1.0,98,0.00,,,0.00,weatherlink.com 1.10,2013-02-16 10:53:00,
2013-02-16 03:00:00,39.3,38.8,30.29,ESE,123,0.0,0.0,98,0.00,,,0.00,Wunderground v.1.15,2013-02-16 11:00:00,
2013-02-16 03:05:00,39.3,38.8,30.29,ESE,120,0.0,0.0,98,0.00,,,0.00,Wunderground v.1.15,2013-02-16 11:05:00,
2013-02-16 03:14:00,39.2,38.7,30.29,ENE,72,0.0,1.0,98,0.00,,,0.00,Wunderground v.1.15,2013-02-16 11:14:00,
2013-02-16 03:19:00,39.1,38.6,30.28,NE,36,1.0,1.0,98,0.00,,,0.00,Wunderground v.1.15,2013-02-16 11:19:00,
2013-02-16 03:30:00,38.8,38.3,30.29,North,11,1.0,1.0,98,0.00,,,0.00,Wunderground v.1.15,2013-02-16 11:30:00,
2013-02-16 03:39:00,38.7,38.2,30.29,NNW,340,1.0,1.0,98,0.00,,,0.00,Wunderground v.1.15,2013-02-16 11:39:00,
2013-02-16 03:50:00,38.6,38.1,30.29,NNE,28,0.0,0.0,98,0.00,,,0.00,Wunderground v.1.15,2013-02-16 11:50:00,
2013-02-16 03:55:00,38.6,38.0,30.29,NNE,27,0.0,1.0,98,0.00,,,0.00,weatherlink.com 1.10,2013-02-16 11:55:00,
2013-02-16 04:04:00,38.7,38.2,30.29,NNE,28,0.0,0.0,98,0.00,,,0.00,Wunderground v.1.15,2013-02-16 12:04:00,
2013-02-16 04:10:00,38.7,38.2,30.29,North,352,0.0,0.0,98,0.00,,,0.00,Wunderground v.1.15,2013-02-16 12:10:00,
2013-02-16 04:20:00,38.7,38.2,30.29,SSW,213,0.0,1.0,98,0.00,,,0.00,Wunderground v.1.15,2013-02-16 12:20:00,
2013-02-16 04:27:00,38.6,38.0,30.29,SE,138,1.0,2.0,98,0.00,,,0.00,weatherlink.com 1.10,2013-02-16 12:27:00,
2013-02-16 04:34:00,38.6,38.1,30.29,SSE,164,0.0,1.0,98,0.00,,,0.00,Wunderground v.1.15,2013-02-16 12:34:00,
2013-02-16 04:40:00,38.6,38.1,30.29,SSE,164,0.0,0.0,98,0.00,,,0.00,Wunderground v.1.15,2013-02-16 12:40:00,
2013-02-16 04:50:00,38.7,38.2,30.29,SSE,159,0.0,0.0,98,0.00,,,0.00,Wunderground v.1.15,2013-02-16 12:50:00,
2013-02-16 04:58:00,38.8,39.0,30.29,West,277,1.0,1.0,99,0.01,,,0.01,weatherlink.com 1.10,2013-02-16 12:58:00,
2013-02-16 05:04:00,38.9,38.6,30.29,North,6,0.0,1.0,99,0.00,,,0.01,Wunderground v.1.15,2013-02-16 13:04:00,
2013-02-16 05:10:00,38.9,38.6,30.29,NNE,13,0.0,0.0,99,0.00,,,0.01,Wunderground v.1.15,2013-02-16 13:10:00,
2013-02-16 05:20:00,38.6,38.1,30.29,SW,232,0.0,1.0,98,0.00,,,0.01,Wunderground v.1.15,2013-02-16 13:20:00,
2013-02-16 05:29:00,38.5,38.0,30.29,West,274,0.0,1.0,98,0.01,,,0.01,weatherlink.com 1.10,2013-02-16 13:29:00,
2013-02-16 05:34:00,38.4,37.9,30.29,West,274,0.0,1.0,98,0.00,,,0.01,Wunderground v.1.15,2013-02-16 13:34:00,
2013-02-16 05:40:00,38.4,37.9,30.29,SW,225,0.0,0.0,98,0.00,,,0.01,Wunderground v.1.15,2013-02-16 13:40:00,
2013-02-16 05:50:00,38.3,37.8,30.29,West,276,0.0,0.0,98,0.00,,,0.01,Wunderground v.1.15,2013-02-16 13:50:00,
2013-02-16 06:00:00,38.1,37.6,30.30,WNW,295,0.0,0.0,98,0.00,,,0.01,Wunderground v.1.15,2013-02-16 14:00:00,
2013-02-16 06:10:00,37.9,37.4,30.30,SW,221,1.0,2.0,98,0.00,,,0.01,Wunderground v.1.15,2013-02-16 14:10:00,
2013-02-16 06:16:00,37.9,37.0,30.30,West,276,0.0,2.0,98,0.00,,,0.01,weatherlink.com 1.10,2013-02-16 14:16:00,
2013-02-16 06:24:00,38.0,37.7,30.31,WSW,237,0.0,1.0,99,0.00,,,0.01,Wunderground v.1.15,2013-02-16 14:24:00,
2013-02-16 06:31:00,38.2,38.0,30.31,SSW,202,1.0,1.0,99,0.00,,,0.01,weatherlink.com 1.10,2013-02-16 14:31:00,
2013-02-16 06:40:00,38.3,38.0,30.31,SSE,148,1.0,2.0,99,0.00,,,0.01,Wunderground v.1.15,2013-02-16 14:40:00,
2013-02-16 06:47:00,38.4,38.0,30.31,ESE,120,1.0,3.0,99,0.00,,,0.01,weatherlink.com 1.10,2013-02-16 14:47:00,
2013-02-16 06:55:00,38.5,38.2,30.31,ESE,107,1.0,2.0,99,0.00,,,0.01,Wunderground v.1.15,2013-02-16 14:55:00,
2013-02-16 07:00:00,38.6,38.3,30.31,ESE,114,1.0,1.0,99,0.00,,,0.01,Wunderground v.1.15,2013-02-16 15:00:00,
2013-02-16 07:09:00,38.7,38.4,30.31,SE,130,2.0,2.0,99,0.00,,,0.01,Wunderground v.1.15,2013-02-16 15:09:00,
2013-02-16 07:15:00,38.8,38.5,30.32,SE,125,2.0,2.0,99,0.00,,,0.01,Wunderground v.1.15,2013-02-16 15:15:00,
2013-02-16 07:25:00,39.0,38.7,30.32,SE,134,2.0,2.0,99,0.00,,,0.01,Wunderground v.1.15,2013-02-16 15:25:00,
2013-02-16 07:34:00,39.1,39.0,30.32,ESE,105,0.0,1.0,99,0.00,,,0.01,weatherlink.com 1.10,2013-02-16 15:34:00,
2013-02-16 07:39:00,39.2,38.9,30.32,ESE,105,0.0,0.0,99,0.00,,,0.01,Wunderground v.1.15,2013-02-16 15:39:00,
2013-02-16 07:49:00,39.4,39.0,30.33,SSE,148,2.0,4.0,99,0.00,,,0.01,weatherlink.com 1.10,2013-02-16 15:49:00,
2013-02-16 07:54:00,39.5,39.2,30.33,North,349,1.0,3.0,99,0.00,,,0.01,Wunderground v.1.15,2013-02-16 15:54:00,
2013-02-16 08:00:00,39.6,39.3,30.33,North,8,0.0,0.0,99,0.00,,,0.01,Wunderground v.1.15,2013-02-16 16:00:00,
2013-02-16 08:05:00,39.5,39.0,30.33,NNW,330,0.0,1.0,99,0.00,,,0.01,weatherlink.com 1.10,2013-02-16 16:05:00,
2013-02-16 08:14:00,39.7,39.4,30.33,NNW,332,0.0,0.0,99,0.00,,,0.01,Wunderground v.1.15,2013-02-16 16:14:00,
2013-02-16 08:20:00,39.8,39.5,30.33,NW,321,0.0,0.0,99,0.00,,,0.01,Wunderground v.1.15,2013-02-16 16:20:00,
2013-02-16 08:30:00,39.9,39.6,30.34,North,5,1.0,1.0,99,0.00,,,0.01,Wunderground v.1.15,2013-02-16 16:30:00,
2013-02-16 08:36:00,39.9,40.0,30.34,North,353,2.0,2.0,99,0.00,,,0.01,weatherlink.com 1.10,2013-02-16 16:36:00,
2013-02-16 08:45:00,40.1,39.8,30.34,NE,47,0.0,1.0,99,0.00,,,0.01,Wunderground v.1.15,2013-02-16 16:45:00,
2013-02-16 08:50:00,40.3,40.0,30.34,NE,47,0.0,0.0,99,0.00,,,0.01,Wunderground v.1.15,2013-02-16 16:50:00,
2013-02-16 09:00:00,40.4,40.1,30.34,NNE,23,0.0,2.0,99,0.00,,,0.01,Wunderground v.1.15,2013-02-16 17:00:00,
2013-02-16 09:05:00,40.3,40.0,30.34,NE,39,1.0,2.0,99,0.00,,,0.01,Wunderground v.1.15,2013-02-16 17:05:00,
2013-02-16 09:10:00,40.4,40.1,30.34,NNE,19,1.0,1.0,99,0.00,,,0.01,Wunderground v.1.15,2013-02-16 17:10:00,
2013-02-16 09:19:00,40.6,40.3,30.34,ENE,60,0.0,0.0,99,0.00,,,0.01,Wunderground v.1.15,2013-02-16 17:19:00,
2013-02-16 09:25:00,40.7,40.4,30.34,ENE,59,0.0,0.0,99,0.00,,,0.01,Wunderground v.1.15,2013-02-16 17:25:00,
2013-02-16 09:35:00,40.9,40.6,30.34,NNE,32,0.0,2.0,99,0.00,,,0.01,Wunderground v.1.15,2013-02-16 17:35:00,
2013-02-16 09:45:00,41.1,40.8,30.34,NNE,13,0.0,1.0,99,0.00,,,0.01,Wunderground v.1.15,2013-02-16 17:45:00,
2013-02-16 09:54:00,41.6,41.0,30.34,NNE,13,0.0,0.0,99,0.00,,,0.01,weatherlink.com 1.10,2013-02-16 17:54:00,
2013-02-16 10:00:00,42.0,41.7,30.34,NNE,13,0.0,0.0,99,0.00,,,0.01,Wunderground v.1.15,2013-02-16 18:00:00,
2013-02-16 10:05:00,42.4,42.1,30.34,NNW,346,0.0,0.0,99,0.00,,,0.01,Wunderground v.1.15,2013-02-16 18:05:00,
2013-02-16 10:10:00,42.6,42.0,30.34,North,359,1.0,2.0,99,0.00,,,0.01,weatherlink.com 1.10,2013-02-16 18:10:00,
2013-02-16 10:20:00,42.7,42.4,30.34,NNE,19,0.0,0.0,99,0.00,,,0.01,Wunderground v.1.15,2013-02-16 18:20:00,
2013-02-16 10:26:00,42.9,43.0,30.34,North,354,1.0,2.0,99,0.00,,,0.01,weatherlink.com 1.10,2013-02-16 18:26:00,
2013-02-16 10:34:00,43.3,43.0,30.34,North,351,1.0,2.0,99,0.00,,,0.01,Wunderground v.1.15,2013-02-16 18:34:00,
2013-02-16 10:40:00,43.7,43.4,30.34,North,356,1.0,2.0,99,0.00,,,0.01,Wunderground v.1.15,2013-02-16 18:40:00,
2013-02-16 10:50:00,43.7,43.4,30.34,NNW,340,1.0,1.0,99,0.00,,,0.01,Wunderground v.1.15,2013-02-16 18:50:00,
2013-02-16 10:57:00,44.2,44.0,30.34,North,9,1.0,2.0,99,0.00,,,0.01,weatherlink.com 1.10,2013-02-16 18:57:00,
2013-02-16 11:04:00,44.0,43.7,30.34,NNW,342,1.0,1.0,99,0.00,,,0.01,Wunderground v.1.15,2013-02-16 19:04:00,
2013-02-16 11:12:00,44.1,44.0,30.34,North,353,2.0,3.0,99,0.00,,,0.01,weatherlink.com 1.10,2013-02-16 19:12:00,
2013-02-16 11:20:00,44.4,44.1,30.34,NNE,23,1.0,2.0,99,0.00,,,0.01,Wunderground v.1.15,2013-02-16 19:20:00,
2013-02-16 11:28:00,44.4,44.0,30.34,NNW,348,0.0,2.0,99,0.00,,,0.01,weatherlink.com 1.10,2013-02-16 19:28:00,
2013-02-16 11:35:00,44.8,44.5,30.34,North,353,1.0,1.0,99,0.00,,,0.01,Wunderground v.1.15,2013-02-16 19:35:00,
2013-02-16 11:44:00,45.0,45.0,30.35,North,358,1.0,3.0,99,0.00,,,0.01,weatherlink.com 1.10,2013-02-16 19:44:00,
2013-02-16 11:49:00,45.2,44.9,30.34,North,8,1.0,2.0,99,0.00,,,0.01,Wunderground v.1.15,2013-02-16 19:49:00,
2013-02-16 11:59:00,45.5,45.0,30.33,NNE,23,1.0,2.0,99,0.00,,,0.01,weatherlink.com 1.10,2013-02-16 19:59:00,
2013-02-16 12:05:00,45.5,45.0,30.33,NNW,342,1.0,3.0,98,0.00,,,0.01,Wunderground v.1.15,2013-02-16 20:05:00,
2013-02-16 12:14:00,46.0,45.5,30.33,West,269,1.0,1.0,98,0.00,,,0.01,Wunderground v.1.15,2013-02-16 20:14:00,
2013-02-16 12:20:00,46.5,46.0,30.33,West,264,1.0,1.0,98,0.00,,,0.01,Wunderground v.1.15,2013-02-16 20:20:00,
2013-02-16 12:30:00,47.0,46.5,30.32,North,354,0.0,0.0,98,0.00,,,0.01,Wunderground v.1.15,2013-02-16 20:30:00,
2013-02-16 12:39:00,47.4,46.0,30.32,West,280,1.0,1.0,95,0.00,,,0.01,Wunderground v.1.15,2013-02-16 20:39:00,
2013-02-16 12:45:00,47.5,46.1,30.32,WSW,246,1.0,1.0,95,0.00,,,0.01,Wunderground v.1.15,2013-02-16 20:45:00,
2013-02-16 12:55:00,48.4,45.6,30.31,North,349,1.0,4.0,90,0.00,,,0.01,Wunderground v.1.15,2013-02-16 20:55:00,
2013-02-16 13:02:00,48.6,45.0,30.31,WSW,252,0.0,3.0,86,0.00,,,0.01,weatherlink.com 1.10,2013-02-16 21:02:00,
2013-02-16 13:09:00,49.2,45.2,30.31,North,356,1.0,1.0,86,0.00,,,0.01,Wunderground v.1.15,2013-02-16 21:09:00,
2013-02-16 13:15:00,49.6,45.9,30.31,WSW,257,0.0,1.0,87,0.00,,,0.01,Wunderground v.1.15,2013-02-16 21:15:00,
2013-02-16 13:24:00,49.9,45.6,30.31,West,274,1.0,2.0,85,0.00,,,0.01,Wunderground v.1.15,2013-02-16 21:24:00,
2013-02-16 13:29:00,49.7,45.1,30.31,NNW,345,1.0,2.0,84,0.00,,,0.01,Wunderground v.1.15,2013-02-16 21:29:00,
2013-02-16 13:40:00,49.9,45.3,30.30,NNE,12,0.0,0.0,84,0.00,,,0.01,Wunderground v.1.15,2013-02-16 21:40:00,
2013-02-16 13:49:00,50.4,45.0,30.30,North,356,0.0,2.0,82,0.00,,,0.01,weatherlink.com 1.10,2013-02-16 21:49:00,
2013-02-16 13:54:00,50.4,45.1,30.30,NNW,333,1.0,3.0,82,0.00,,,0.01,Wunderground v.1.15,2013-02-16 21:54:00,
2013-02-16 14:00:00,50.4,44.8,30.30,West,271,0.0,1.0,81,0.00,,,0.01,Wunderground v.1.15,2013-02-16 22:00:00,
2013-02-16 14:05:00,50.3,44.4,30.29,SW,235,1.0,1.0,80,0.00,,,0.01,Wunderground v.1.15,2013-02-16 22:05:00,
2013-02-16 14:10:00,50.3,44.4,30.29,West,267,1.0,1.0,80,0.00,,,0.01,Wunderground v.1.15,2013-02-16 22:10:00,
2013-02-16 14:19:00,50.6,44.7,30.29,ESE,113,0.0,0.0,80,0.00,,,0.01,Wunderground v.1.15,2013-02-16 22:19:00,
2013-02-16 14:25:00,50.6,44.7,30.29,ESE,121,1.0,4.0,80,0.00,,,0.01,Wunderground v.1.15,2013-02-16 22:25:00,
2013-02-16 14:35:00,50.8,45.2,30.29,SE,132,1.0,2.0,81,0.00,,,0.01,Wunderground v.1.15,2013-02-16 22:35:00,
2013-02-16 14:44:00,50.7,44.4,30.29,ENE,57,0.0,0.0,79,0.00,,,0.01,Wunderground v.1.15,2013-02-16 22:44:00,
2013-02-16 14:50:00,50.5,44.6,30.29,ESE,105,1.0,1.0,80,0.00,,,0.01,Wunderground v.1.15,2013-02-16 22:50:00,
2013-02-16 15:00:00,50.5,44.2,30.29,NE,46,0.0,0.0,79,0.00,,,0.01,Wunderground v.1.15,2013-02-16 23:00:00,
2013-02-16 15:07:00,50.3,44.0,30.29,North,6,3.0,3.0,79,0.00,,,0.01,weatherlink.com 1.10,2013-02-16 23:07:00,
2013-02-16 15:14:00,49.9,44.6,30.29,NNW,333,2.0,2.0,82,0.00,,,0.01,Wunderground v.1.15,2013-02-16 23:14:00,
2013-02-16 15:20:00,49.3,45.6,30.30,North,357,2.0,2.0,87,0.00,,,0.01,Wunderground v.1.15,2013-02-16 23:20:00,
2013-02-16 15:30:00,48.5,45.7,30.30,West,263,0.0,3.0,90,0.00,,,0.01,Wunderground v.1.15,2013-02-16 23:30:00,
2013-02-16 15:38:00,47.8,45.0,30.30,West,278,0.0,3.0,91,0.01,,,0.02,weatherlink.com 1.10,2013-02-16 23:38:00,
2013-02-16 15:44:00,47.8,45.6,30.30,West,278,0.0,0.0,92,0.00,,,0.02,Wunderground v.1.15,2013-02-16 23:44:00,
2013-02-16 15:50:00,47.8,45.6,30.30,SE,139,0.0,0.0,92,0.00,,,0.02,Wunderground v.1.15,2013-02-16 23:50:00,
2013-02-16 16:00:00,47.9,46.0,30.30,SSE,157,0.0,0.0,93,0.00,,,0.02,Wunderground v.1.15,2013-02-17 00:00:00,
2013-02-16 16:09:00,47.8,46.0,30.30,SSE,155,1.0,2.0,92,0.01,,,0.02,weatherlink.com 1.10,2013-02-17 00:09:00,
2013-02-16 16:15:00,48.0,46.1,30.30,SSE,148,1.0,1.0,93,0.00,,,0.02,Wunderground v.1.15,2013-02-17 00:15:00,
2013-02-16 16:25:00,47.8,45.9,30.30,ESE,120,1.0,2.0,93,0.00,,,0.02,Wunderground v.1.15,2013-02-17 00:25:00,
2013-02-16 16:35:00,47.7,45.5,30.30,NNW,334,1.0,2.0,92,0.00,,,0.02,Wunderground v.1.15,2013-02-17 00:35:00,
2013-02-16 16:40:00,47.8,46.0,30.30,North,358,1.0,3.0,92,0.00,,,0.02,weatherlink.com 1.10,2013-02-17 00:40:00,
2013-02-16 16:49:00,47.8,45.6,30.30,East,89,0.0,0.0,92,0.00,,,0.02,Wunderground v.1.15,2013-02-17 00:49:00,
2013-02-16 16:55:00,47.9,45.4,30.30,East,88,0.0,1.0,91,0.00,,,0.02,Wunderground v.1.15,2013-02-17 00:55:00,
2013-02-16 17:00:00,48.0,45.5,30.30,ESE,117,0.0,0.0,91,0.00,,,0.02,Wunderground v.1.15,2013-02-17 01:00:00,
2013-02-16 17:05:00,48.1,45.6,30.30,SE,141,0.0,1.0,91,0.00,,,0.02,Wunderground v.1.15,2013-02-17 01:05:00,
2013-02-16 17:12:00,48.0,46.0,30.30,SE,146,0.0,1.0,92,0.00,,,0.02,weatherlink.com 1.10,2013-02-17 01:12:00,
2013-02-16 17:20:00,47.8,45.9,30.29,SW,218,0.0,0.0,93,0.00,,,0.02,Wunderground v.1.15,2013-02-17 01:20:00,
2013-02-16 17:27:00,47.3,45.0,30.29,SW,221,2.0,2.0,93,0.00,,,0.02,weatherlink.com 1.10,2013-02-17 01:27:00,
2013-02-16 17:34:00,47.0,45.4,30.29,SW,215,1.0,1.0,94,0.00,,,0.02,Wunderground v.1.15,2013-02-17 01:34:00,
2013-02-16 17:39:00,46.7,45.1,30.29,SW,214,1.0,2.0,94,0.00,,,0.02,Wunderground v.1.15,2013-02-17 01:39:00,
2013-02-16 17:50:00,45.8,44.2,30.28,SSE,158,1.0,1.0,94,0.00,,,0.02,Wunderground v.1.15,2013-02-17 01:50:00,
2013-02-16 17:59:00,45.0,43.0,30.29,SW,231,3.0,3.0,94,0.00,,,0.02,weatherlink.com 1.10,2013-02-17 01:59:00,
2013-02-16 18:05:00,44.2,42.6,30.28,SW,214,2.0,3.0,94,0.00,,,0.02,Wunderground v.1.15,2013-02-17 02:05:00,
2013-02-16 18:14:00,43.5,42.0,30.29,SW,228,2.0,3.0,94,0.00,,,0.02,weatherlink.com 1.10,2013-02-17 02:14:00,
2013-02-16 18:19:00,43.1,41.8,30.29,SSW,208,2.0,2.0,95,0.00,,,0.02,Wunderground v.1.15,2013-02-17 02:19:00,
2013-02-16 18:25:00,42.9,41.6,30.29,SW,231,2.0,2.0,95,0.00,,,0.02,Wunderground v.1.15,2013-02-17 02:25:00,
2013-02-16 18:30:00,42.5,41.0,30.29,SSE,160,1.0,4.0,95,0.00,,,0.02,weatherlink.com 1.10,2013-02-17 02:30:00,
2013-02-16 18:39:00,42.1,40.8,30.29,SSE,165,2.0,2.0,95,0.00,,,0.02,Wunderground v.1.15,2013-02-17 02:39:00,
2013-02-16 18:45:00,41.9,40.8,30.30,SSW,204,2.0,2.0,96,0.00,,,0.02,Wunderground v.1.15,2013-02-17 02:45:00,
2013-02-16 18:55:00,41.8,40.7,30.29,SSW,210,2.0,3.0,96,0.00,,,0.02,Wunderground v.1.15,2013-02-17 02:55:00,
2013-02-16 19:00:00,41.5,40.4,30.30,SSE,160,2.0,2.0,96,0.00,,,0.02,Wunderground v.1.15,2013-02-17 03:00:00,
2013-02-16 19:10:00,41.6,40.8,30.30,SSE,166,2.0,2.0,97,0.00,,,0.02,Wunderground v.1.15,2013-02-17 03:10:00,
2013-02-16 19:17:00,41.7,41.0,30.30,SW,222,1.0,3.0,97,0.00,,,0.02,weatherlink.com 1.10,2013-02-17 03:17:00,
2013-02-16 19:24:00,41.6,40.8,30.30,SE,141,2.0,2.0,97,0.00,,,0.02,Wunderground v.1.15,2013-02-17 03:24:00,
2013-02-16 19:32:00,41.7,41.0,30.30,SE,125,0.0,3.0,97,0.00,,,0.02,weatherlink.com 1.10,2013-02-17 03:32:00,
2013-02-16 19:40:00,41.6,40.8,30.30,SE,141,1.0,1.0,97,0.00,,,0.02,Wunderground v.1.15,2013-02-17 03:40:00,
2013-02-16 19:48:00,41.5,41.0,30.30,SSE,159,1.0,3.0,97,0.00,,,0.02,weatherlink.com 1.10,2013-02-17 03:48:00,
2013-02-16 19:55:00,41.4,40.3,30.30,SSW,205,2.0,3.0,96,0.00,,,0.02,Wunderground v.1.15,2013-02-17 03:55:00,
2013-02-16 20:00:00,41.2,40.4,30.30,SSE,167,2.0,2.0,97,0.00,,,0.02,Wunderground v.1.15,2013-02-17 04:00:00,
2013-02-16 20:09:00,40.9,40.1,30.30,SSW,208,1.0,1.0,97,0.00,,,0.02,Wunderground v.1.15,2013-02-17 04:09:00,
2013-02-16 20:15:00,40.7,39.9,30.30,SSW,205,1.0,1.0,97,0.00,,,0.02,Wunderground v.1.15,2013-02-17 04:15:00,
2013-02-16 20:25:00,40.6,39.8,30.31,SSW,205,1.0,1.0,97,0.00,,,0.02,Wunderground v.1.15,2013-02-17 04:25:00,
2013-02-16 20:34:00,40.4,39.6,30.31,SE,140,1.0,1.0,97,0.00,,,0.02,Wunderground v.1.15,2013-02-17 04:34:00,
2013-02-16 20:40:00,40.4,39.6,30.31,SE,144,1.0,1.0,97,0.00,,,0.02,Wunderground v.1.15,2013-02-17 04:40:00,
2013-02-16 20:50:00,40.4,39.6,30.31,SE,143,1.0,2.0,97,0.00,,,0.02,Wunderground v.1.15,2013-02-17 04:50:00,
2013-02-16 21:00:00,40.4,39.6,30.31,SSW,200,2.0,2.0,97,0.00,,,0.02,Wunderground v.1.15,2013-02-17 05:00:00,
2013-02-16 21:04:00,40.2,39.4,30.31,SSE,165,1.0,2.0,97,0.00,,,0.02,Wunderground v.1.15,2013-02-17 05:04:00,
2013-02-16 21:10:00,40.0,39.2,30.31,SW,226,0.0,1.0,97,0.00,,,0.02,Wunderground v.1.15,2013-02-17 05:10:00,
2013-02-16 21:20:00,39.5,38.7,30.32,SW,221,0.0,1.0,97,0.00,,,0.02,Wunderground v.1.15,2013-02-17 05:20:00,
2013-02-16 21:29:00,39.3,38.5,30.32,SSE,164,0.0,0.0,97,0.00,,,0.02,Wunderground v.1.15,2013-02-17 05:29:00,
2013-02-16 21:35:00,39.4,38.6,30.32,SSE,156,0.0,2.0,97,0.00,,,0.02,Wunderground v.1.15,2013-02-17 05:35:00,
2013-02-16 21:45:00,39.5,38.7,30.32,SSW,204,1.0,2.0,97,0.00,,,0.02,Wunderground v.1.15,2013-02-17 05:45:00,
2013-02-16 21:53:00,39.8,39.0,30.32,SSW,195,2.0,4.0,97,0.00,,,0.02,weatherlink.com 1.10,2013-02-17 05:53:00,
2013-02-16 22:00:00,39.8,39.0,30.32,SSW,204,2.0,2.0,97,0.00,,,0.02,Wunderground v.1.15,2013-02-17 06:00:00,
2013-02-16 22:09:00,39.5,39.0,30.32,WSW,240,2.0,2.0,97,0.00,,,0.02,weatherlink.com 1.10,2013-02-17 06:09:00,
2013-02-16 22:14:00,39.2,38.4,30.32,SSE,165,1.0,1.0,97,0.00,,,0.02,Wunderground v.1.15,2013-02-17 06:14:00,
2013-02-16 22:24:00,38.8,38.0,30.32,SSW,210,0.0,2.0,97,0.00,,,0.02,weatherlink.com 1.10,2013-02-17 06:24:00,
2013-02-16 22:30:00,38.6,37.8,30.32,SSE,165,0.0,0.0,97,0.00,,,0.02,Wunderground v.1.15,2013-02-17 06:30:00,
2013-02-16 22:39:00,38.0,37.2,30.32,WSW,245,0.0,0.0,97,0.00,,,0.02,Wunderground v.1.15,2013-02-17 06:39:00,
2013-02-16 22:45:00,37.8,37.0,30.32,SW,217,0.0,0.0,97,0.00,,,0.02,Wunderground v.1.15,2013-02-17 06:45:00,
2013-02-16 22:55:00,37.5,36.7,30.32,SSE,156,1.0,1.0,97,0.00,,,0.02,Wunderground v.1.15,2013-02-17 06:55:00,
2013-02-16 23:05:00,38.3,37.8,30.32,ESE,120,1.0,1.0,98,0.00,,,0.02,Wunderground v.1.15,2013-02-17 07:05:00,
2013-02-16 23:11:00,38.5,38.0,30.32,ESE,120,0.0,2.0,98,0.00,,,0.02,weatherlink.com 1.10,2013-02-17 07:11:00,
2013-02-16 23:19:00,38.4,37.6,30.32,ESE,120,0.0,0.0,97,0.00,,,0.02,Wunderground v.1.15,2013-02-17 07:19:00,
2013-02-16 23:27:00,38.1,37.0,30.32,ESE,120,0.0,1.0,97,0.00,,,0.02,weatherlink.com 1.10,2013-02-17 07:27:00,
2013-02-16 23:34:00,38.3,37.8,30.32,SSW,203,0.0,0.0,98,0.00,,,0.02,Wunderground v.1.15,2013-02-17 07:34:00,
2013-02-16 23:40:00,38.4,37.9,30.32,SE,127,0.0,0.0,98,0.00,,,0.02,Wunderground v.1.15,2013-02-17 07:40:00,
2013-02-16 23:50:00,38.7,38.2,30.32,ESE,118,0.0,0.0,98,0.00,,,0.02,Wunderground v.1.15,2013-02-17 07:50:00,
2013-02-16 23:58:00,39.0,38.0,30.32,SE,146,0.0,1.0,98,0.00,,,0.02,weatherlink.com 1.10,2013-02-17 07:58:00,